Погода в Бокас-дель-Торо

Панама     9°03′25″N   82°33′29″W
темп.,
°C
ветер,
м/с
пор.,
м/с
влажн.,
%
обл.,
%
осадки,
мм/ч
давл.,
гПа
погр.,
м
1 марта, пн
пн101:00+13зюз228993 0.2 101132
04:00+15зюз228593 0.0 100929
07:00+16сз128896 0.1 101074
10:00+17ссз1293100 0.5 1011187
13:00+20ссв2385100 0.8 1010516
16:00+21св237999 0.6 1008638
19:00+17ссв129997 1.7 1010163
22:00+16з119999 0.2 1012117
2 марта, вт
вт201:00+15зюз129790 0.2 101133
04:00+15з119480 0.0 101050
07:00+16сз129487 0.0 101195
10:00+18ссз1389100 0.2 1013328
13:00+22св346972 0.5 1011981
16:00+20св348852 1.6 1009564
19:00+16ссв139976 2.6 1010166
22:00+16ссз129998 0.1 1013154
3 марта, ср
ср301:00+16ссз129898 0.1 1013105
04:00+15ссз129794 0.1 101193
07:00+15сз129797 0.1 101393
10:00+19ссв238098 0.1 1014667
13:00+22ссв336096 0.1 10131129
16:00+19св238682 0.6 1011546
19:00+17ссв129780 1.2 1012149
22:00+15з129893 0.1 1014161
4 марта, чт
чт401:00+14зюз229359 0.1 101434
04:00+14зюз22884 0.0 101330
07:00+15зюз118635 0.0 101429
10:00+22ссв23580 0.0 1015945
13:00+22св336931 0.2 10131004
16:00+18св239794 1.6 1011314
19:00+16ссз019995 2.1 1012109
22:00+15з129893 0.0 1014131
5 марта, пт
пт501:00+14зюз229060 0.0 101329
04:00+15з119069 0.2 101127
07:00+14зюз119582 0.3 101255
10:00+21ссв226439 0.0 1014802
13:00+23св336334 0.1 10121047
16:00+18св239778 0.9 1009328
19:00+17св129989 1.8 1010156
22:00+15зюз119999 0.1 101257